Showing default

IRIDIUM 140, 43252

Orbit data source: Space-Track

IRIDIUM 140, 43252 is a payload satellite owned by Iridium (US) in LEO that was launched on Fri, 30 Mar 2018 UTC via an FALCON 9 launch vehicle from the Air Force Western Test Range (AFWTR). Payloads include a variety of satellites, spacecraft, and rockets equipped with specific instruments for various scientific and technological missions. These include communications satellites like Starlink; space stations such as the ISS; scientific satellites like the Hubble; Earth observation satellites from companies like Planet Labs, Umbra, and HawkEye 360; GPS; miniature CubeSats for education and research; and military/defense satellites.

Loading next visibility...
IRIDIUM 140 details
Identifier
43252, 2018-030D
Orbit
LEO
Last TLE update9 hours ago
Origin
Flag of USIridium (US)
ManufacturerOATK SSG Gilbert
MissionOperational Commercial Communications
Bus & MotorELITEBUS, Unknown motor
Mass860 kg wet, 700 kg dry
Launch date (UTC)
2018-03-30 (7 years ago)
Launch vehicle
FALCON 9
Launch site
Air Force Western Test Range (AFWTR)
Object type
Payload
Rocket body
Debris
Shape & HBRTrap Box + 2 Pan, 9.4 m
Radar Cross Section14.423 m², Large (>1 m²)

Expand to show TLE details & history

TLE from 9 hours ago
0 IRIDIUM 140
1 43252U 18030D   24361.15040291  .00000755  00000-0  26264-3 0  9996
2 43252  86.3990 155.3530 0001906  93.0392 267.1022 14.34221431353070
Epoch: 2024-12-26T03:36Z
Definitive object data (Epoch: 2024-12-26T03:36:34.811Z)
Latitude-0.00001°
Longitude6.07403°
Altitude780.775 km
Speed7.463 km/s
True Right ascension10h 21m 24s
True Declination0° 00' 00"
Sunlit
Object was in partial shadow at TLE epoch
Visualization TLE readout
Latitude-23.00869°
Longitude-172.56486°
Altitude786.885 km
Speed7.459 km/s
Apparent Right ascension23h 13m 39s
Apparent Declination-31° 32' 01"
Sunlit
Object is in daylight
Visualization observer readout
Local Sidereal Time12:17:03
Azimuth61.77° ENE
Elevation-74.679°
Doppler factor1
Orbital elements
Apogee altitude775.983 km
Perigee altitude773.256 km
Semi-major axis7,152.756 km
Eccentricity0.0001906
Inclination86.399°
RAAN155.353°
Arg. of periapsis93.0392°
True anomaly267.08039°
Mean anomaly267.1022°
Eccentric anomaly267.09129°
Mean motion3.58784 °/min
BSTAR0.00026264
Orbital period100.34 mins
Loading maneuver chart data...
Loading historical data...
Loading historical data...
Loading historical data...
Loading historical data...
Loading historical data...
Loading historical data...
Loading historical data...

IRIDIUM 140 Visibility forecast

Observer location: undefined°, undefined

Span
Click to sort rows by Start time (UTC) header in descending order
Start Az.
Max El. time (UTC)
Max El. Az.
Max El.
End time (UTC)
End Az.
9 mins2024-12-26 22:36:28.101Z359.859° N2024-12-26 22:40:28.101Z38.308° NE44.467°2024-12-26 22:45:28.101Z175.81° S
6 mins2024-12-27 09:53:28.101Z118.405° SE2024-12-27 09:56:28.101Z78.76° E18.327°2024-12-27 09:59:28.101Z40.335° NE
8 mins2024-12-27 11:33:28.101Z212.839° SW2024-12-27 11:36:28.101Z268.875° W35.301°2024-12-27 11:41:28.101Z348.979° N
|